De Queen, AR

8:36 PM CST on January 28, 2020 (GMT -0600)
Helms Sevier County

Weather History for KDEQ - December, 2019

Change the Weather History Date:

Sunday, December 8, 2019

  Actual Average Record
Temperature  
Mean Temperature 45 °F 44 °F  
Max Temperature 54 °F 57 °F 79 °F (2007)
Min Temperature 36 °F 31 °F 13 °F (2006)
Degree Days  
Heating Degree Days 20 21  
Month to date heating degree days 133 162  
Since 1 July heating degree days 756 688  
Cooling Degree Days 0 0  
Month to date cooling degree days 0 0  
Year to date cooling degree days 2315 1941  
Moisture  
Dew Point 43 °F    
Average Humidity 90    
Maximum Humidity 100    
Minimum Humidity 80    
Precipitation  
Precipitation 0.00 in 0.11 in 1.31 in (1997)
Month to date precipitation T 0.96  
Year to date precipitation 50.60 45.59  
Snow  
Snow 0.00 in - - ()
Month to date snowfall 0.0  
Since 1 July snowfall 0.0  
Snow Depth 0.00 in    
Sea Level Pressure  
Sea Level Pressure 30.01 in    
Wind  
Wind Speed 3 mph ()    
Max Wind Speed 10 mph    
Max Gust Speed 14 mph    
Visibility 3.9 miles    
Events Fog    
T = Trace of Precipitation, MM = Missing Value Source: Averaged Metar Reports

Daily Weather History Graph

Daily Weather History Graph

Search for Another Location

Airport or City:

Astronomy

Dec. 08, 2019 Rise Set
Actual Time 7:10 AM CST 5:08 PM CST
Civil Twilight 6:42 AM CST 5:35 PM CST
Nautical Twilight 6:11 AM CST 6:06 PM CST
Astronomical Twilight 5:41 AM CST 6:37 PM CST
Moon 3:07 PM CST (12/8) 3:31 AM CST (12/8)
Length of Visible Light 10h 52m
Length of Day
9h 57m
Waxing Gibbous, 88% of the Moon is Illuminated
Dec 8
Waxing Gibbous
Dec 11
Full
Dec 18
Last Quarter
Dec 25
New
Jan 2
First Quarter

Hourly Weather History & Observations

Time (CST) Temp. Windchill Dew Point Humidity Pressure Visibility Wind Dir Wind Speed Gust Speed Precip Events Conditions
12:43 AM 39.9 °F - 37.0 °F 89% 30.15 in 1.8 mi Calm Calm - N/A   Clear
12:53 AM 37.9 °F - 37.0 °F 97% 30.15 in 0.8 mi Calm Calm - N/A   Clear
1:17 AM 39.0 °F - 36.0 °F 89% 30.15 in 2.5 mi Calm Calm - N/A   Partly Cloudy
1:28 AM 37.9 °F 34.4 °F 36.0 °F 93% 30.14 in 0.2 mi East 4.6 mph - N/A Fog Fog
3:14 AM 37.9 °F - 36.0 °F 93% 30.12 in 0.5 mi Calm Calm - N/A Fog Fog
3:25 AM 39.0 °F 36.8 °F 37.0 °F 93% 30.11 in 0.8 mi ENE 3.5 mph - N/A   Overcast
3:35 AM 39.9 °F 37.8 °F 37.9 °F 93% 30.11 in 2.0 mi ENE 3.5 mph - N/A   Overcast
4:01 AM 43.0 °F 40.3 °F 41.0 °F 93% 30.11 in 0.5 mi East 4.6 mph - N/A Fog Fog
4:30 AM 42.1 °F 37.1 °F 39.9 °F 92% 30.08 in 0.2 mi East 8.1 mph - N/A Fog Fog
4:37 AM 42.1 °F 39.2 °F 39.9 °F 92% 30.09 in 0.5 mi East 4.6 mph - N/A Fog Fog
5:53 AM 42.1 °F 37.7 °F 41.0 °F 96% 30.09 in 0.5 mi East 6.9 mph - N/A Fog Fog
6:53 AM 43.0 °F 38.8 °F 41.0 °F 93% 30.09 in 0.5 mi East 6.9 mph - N/A Fog Fog
7:35 AM 43.0 °F 40.3 °F 42.1 °F 97% 30.09 in 0.2 mi ESE 4.6 mph - N/A Fog Fog
7:53 AM 43.0 °F 40.3 °F 42.1 °F 97% 30.08 in 0.2 mi ESE 4.6 mph - N/A Fog Fog
8:53 AM 45.0 °F 43.5 °F 43.0 °F 93% 30.08 in 0.5 mi East 3.5 mph - N/A Fog Fog
9:13 AM 45.0 °F 42.6 °F 44.1 °F 97% 30.08 in 1.8 mi Variable 4.6 mph - N/A   Overcast
9:20 AM 45.0 °F 43.5 °F 44.1 °F 97% 30.08 in 3.0 mi Variable 3.5 mph - N/A   Overcast
9:53 AM 46.0 °F 43.1 °F 44.1 °F 93% 30.08 in 4.0 mi SSE 5.8 mph - N/A   Overcast
10:29 AM 46.9 °F - 45.0 °F 93% 30.06 in 6.0 mi SSE 6.9 mph - N/A   Overcast
10:53 AM 48.0 °F - 45.0 °F 89% 30.06 in 5.0 mi SSE 5.8 mph - N/A   Overcast
12:53 PM 50.0 °F - 46.0 °F 86% 29.96 in 7.0 mi SSE 6.9 mph - N/A   Overcast
1:53 PM 51.1 °F - 46.0 °F 83% 29.92 in 4.0 mi SE 4.6 mph - N/A   Haze
2:12 PM 51.1 °F - 46.0 °F 83% 29.91 in 4.0 mi SE 6.9 mph - N/A   Haze
2:53 PM 52.0 °F - 46.0 °F 80% 29.89 in 4.0 mi SSE 5.8 mph - N/A   Haze
3:53 PM 52.0 °F - 46.0 °F 80% 29.87 in 7.0 mi ESE 5.8 mph - N/A   Overcast
4:53 PM 52.0 °F - 46.9 °F 83% 29.87 in 9.0 mi Variable 4.6 mph - N/A   Overcast
5:53 PM 52.0 °F - 46.9 °F 83% 29.86 in 10.0 mi East 3.5 mph - N/A   Overcast
6:53 PM 50.0 °F - 46.0 °F 86% 29.87 in 8.0 mi NE 4.6 mph - N/A   Scattered Clouds
7:53 PM 51.1 °F - 46.9 °F 86% 29.85 in 10.0 mi East 3.5 mph - N/A   Overcast
9:53 PM 52.0 °F - 46.9 °F 83% 29.81 in 10.0 mi Variable 6.9 mph - N/A   Mostly Cloudy
10:53 PM 52.0 °F - 48.0 °F 86% 29.79 in 10.0 mi Variable 4.6 mph - N/A   Overcast
11:53 PM 54.0 °F - 50.0 °F 86% 29.77 in 9.0 mi ESE 8.1 mph - N/A   Overcast